Location: ??????????
(44.2167°N, 135.5333°E)
Time: 14:53:49
(UTC+00:00)

Cosmos 1812 - Pass Details

Date: 15 June 2025
Orbit: 398 x 399 km, 82.5° (Epoch: 15 July)

Event Time Altitude Azimuth Distance (km) Brightness Sun altitude
Rises 16:50:21 0° 354° (N) 2,335 7.0 -17.8°
Reaches altitude 10° 16:52:24 10° 357° (N) 1,468 5.9 -17.6°
Maximum altitude 16:55:34 68° 81° (E) 439 2.4 -17.3°
Enters shadow 16:56:37 37° 152° (SSE) 640 2.9 -17.2°
